Location: Devils Tower National Monument
(44.5904°N, 104.7201°W)
Time: 13:16:41
(UTC-07:00)

Envisat - Pass Details

Date: 26 January 2020
Orbit: 764 x 766 km, 98.1° (Epoch: 22 February)

Event Time Altitude Azimuth Distance (km) Brightness Sun altitude
Rises 05:16:18 0° 32° (NNE) 3,238 6.6 -22.7°
Reaches altitude 10° 05:19:54 10° 59° (ENE) 2,305 6.2 -22.1°
Maximum altitude 05:22:21 13° 88° (E) 2,067 6.3 -21.6°
Drops below altitude 10° 05:24:47 10° 117° (ESE) 2,296 6.5 -21.2°
Sets 05:28:21 0° 144° (SE) 3,215 6.9 -20.6°
